Voltar ao catálogo

FENGYUN 1C DEB

AtivoLEO
NORAD 35203·DEBRIS·🇨🇳 China

Lançado May 10, 1999 de Taiyuan Satellite Launch Center

Loading…

Próximas Passagens (próximas 24 horas)

TLE

AtualizadoSource: Space-Track

Época: Sep 14, 2026, 06:25 UTC

1 35203U 99025DPK 26257.26765380  .00001188  00000-0  13520-2 0  9998
2 35203 102.0836 275.5085 0514163 277.7930  76.5128 13.27363646633059

Acompanhe FENGYUN 1C DEB em tempo real com AllMySat

Download on the App Store